logo tempoitalia

Diretta Meteo North Bend, Stati Uniti (USA)domenica 30 agosto ore 22:56

Mappa
Sereno 14 °C Sereno 24 Ore: T.min 11 T.max 21
Ponente Nord Km/h 5.5 Punto di rugiada: 12 °C Umidità: 87% Visibilità: 10 Km
Il sole sorge alle: 06:39 Il sole tramonta alle: 19:55
30 Agosto 2026 22:56 tempo osservato: Sereno Sereno 14 87 1014 vento: Nord N 5.5
30 Agosto 2026 21:56 tempo osservato: Sereno Sereno 14 93 1014 vento: Nord N 9.3
30 Agosto 2026 20:56 tempo osservato: Sereno Sereno 15 87 1015 vento: Nord N 22.2
30 Agosto 2026 19:56 tempo osservato: Sereno Sereno 16 82 1014 vento: Nord N 33.3
30 Agosto 2026 18:56 tempo osservato: Sereno Sereno 17 77 1015 vento: Nord N 35.2
30 Agosto 2026 17:56 tempo osservato: Sereno Sereno 18 67 1015 vento: Nord N 38.8
30 Agosto 2026 16:56 tempo osservato: Sereno Sereno 19 63 1016 vento: Nord N 38.8
30 Agosto 2026 15:56 tempo osservato: Sereno Sereno 19 59 1016 vento: Nord N 38.8
30 Agosto 2026 14:56 tempo osservato: Sereno Sereno 19 63 1017 vento: Nord N 40.7
30 Agosto 2026 13:56 tempo osservato: Sereno Sereno 19 59 1018 vento: Nord N 38.8
30 Agosto 2026 12:56 tempo osservato: Sereno Sereno 20 56 1018 vento: Nord N 29.6
30 Agosto 2026 11:56 tempo osservato: Sereno Sereno 20 56 1019 vento: Nord N/NO 29.6
30 Agosto 2026 10:56 tempo osservato: Sereno Sereno 21 56 1019 vento: Nord N/NO 20.3
30 Agosto 2026 09:56 tempo osservato: Sereno Sereno 18 63 1019 vento: Nord NE 9.3
30 Agosto 2026 08:56 tempo osservato: Sereno Sereno 15 82 1020 vento: Nord N/NE 11.1
30 Agosto 2026 07:56 tempo osservato: Sereno Sereno 12 100 1020 vento: Nord N/NE 11.1
30 Agosto 2026 06:56 tempo osservato: Sereno Sereno 11 100 1020 vento: Nord N/NE 9.3
30 Agosto 2026 05:56 tempo osservato: Sereno Sereno 11 100 1020 vento: Nord N 0
30 Agosto 2026 04:56 tempo osservato: Foschia Foschia 11 100 1020 vento: Nord N 5.5
30 Agosto 2026 03:56 tempo osservato: Sereno Sereno 11 100 1020 vento: Nord N 5.5
30 Agosto 2026 02:56 tempo osservato: Sereno Sereno 12 100 1020 vento: Nord N 5.5
30 Agosto 2026 01:56 tempo osservato: Sereno Sereno 13 93 1020 vento: Nord N 7.4
30 Agosto 2026 00:56 tempo osservato: Sereno Sereno 14 87 1020 vento: Nord N 0
29 Agosto 2026 23:56 tempo osservato: Sereno Sereno 14 93 1020 vento: Nord N/NE 9.3